• In Moldova, Republic
  • List of Countries
  • For 7 days
  • Water Temperature
  • Satellite Maps
  • Weather Map
  • Weather Widgets
  • user-avatar
    Login

    Hourly Weather Sydney

    Today, 25 June, Sunday

    Time Temperature Precipitation Wind Pressure Humidity
    00:00 +8°C° 0 mm 3 mps 762 mmHg 87%
    01:00 +8°C° 0 mm 3 mps 762 mmHg 89%
    02:00 +7°C° 0 mm 3 mps 762 mmHg 90%
    03:00 +7°C° 0 mm 3 mps 762 mmHg 92%
    04:00 +5°C° 0 mm 3 mps 762 mmHg 94%
    05:00 +5°C° 0 mm 3 mps 762 mmHg 94%
    06:00 +5°C° 0 mm 3 mps 762 mmHg 94%
    07:00 +5°C° 0 mm 3 mps 762 mmHg 94%
    08:00 +8°C° 0 mm 3 mps 762 mmHg 83%
    09:00 +10°C° 0 mm 3 mps 762 mmHg 72%
    10:00 +13°C° 0 mm 5 mps 762 mmHg 59%
    11:00 +15°C° 0 mm 5 mps 762 mmHg 54%
    12:00 +16°C° 0 mm 5 mps 762 mmHg 48%
    13:00 +19°C° 0 mm 5 mps 761 mmHg 42%
    14:00 +17°C° 0 mm 5 mps 761 mmHg 47%
    15:00 +17°C° 0 mm 4 mps 761 mmHg 51%
    16:00 +15°C° 0 mm 4 mps 760 mmHg 56%
    17:00 +13°C° 0 mm 4 mps 761 mmHg 59%
    18:00 +12°C° 0 mm 4 mps 762 mmHg 62%
    19:00 +11°C° 0 mm 4 mps 762 mmHg 65%
    20:00 +9°C° 0 mm 5 mps 763 mmHg 68%
    21:00 +8°C° 0 mm 5 mps 763 mmHg 71%
    22:00 +8°C° 0 mm 5 mps 763 mmHg 74%
    23:00 +7°C° 0 mm 5 mps 763 mmHg 76%

    Tomorrow, 26 June, Monday

    Time Temperature Precipitation Wind Pressure Humidity
    00:00 +7°C° 0 mm 5 mps 763 mmHg 79%
    01:00 +7°C° 0 mm 5 mps 763 mmHg 81%
    02:00 +6°C° 0 mm 5 mps 763 mmHg 83%
    03:00 +6°C° 0 mm 5 mps 763 mmHg 84%
    04:00 +6°C° 0 mm 5 mps 763 mmHg 86%
    05:00 +6°C° 0 mm 5 mps 764 mmHg 87%
    06:00 +5°C° 0 mm 4 mps 764 mmHg 88%
    07:00 +5°C° 0 mm 4 mps 765 mmHg 89%
    08:00 +7°C° 0 mm 4 mps 765 mmHg 79%
    09:00 +11°C° 0 mm 4 mps 765 mmHg 68%
    10:00 +13°C° 0 mm 4 mps 766 mmHg 58%
    11:00 +14°C° 0 mm 3 mps 766 mmHg 53%
    12:00 +16°C° 0 mm 3 mps 765 mmHg 48%
    13:00 +18°C° 0 mm 3 mps 765 mmHg 43%
    14:00 +17°C° 0 mm 2 mps 765 mmHg 48%
    15:00 +16°C° 0 mm 2 mps 765 mmHg 53%
    16:00 +15°C° 0 mm 2 mps 765 mmHg 59%
    17:00 +13°C° 0 mm 2 mps 766 mmHg 66%
    18:00 +10°C° 0 mm 2 mps 766 mmHg 74%
    19:00 +8°C° 0 mm 2 mps 767 mmHg 81%
    20:00 +8°C° 0 mm 2 mps 768 mmHg 82%
    21:00 +8°C° 0 mm 2 mps 768 mmHg 83%
    22:00 +8°C° 0 mm 2 mps 769 mmHg 85%
    23:00 +8°C° 0 mm 2 mps 769 mmHg 84%

    Day after tomorrow, 27 June, Tuesday

    Time Temperature Precipitation Wind Pressure Humidity
    00:00 +8°C° 0 mm 2 mps 769 mmHg 84%
    01:00 +8°C° 0 mm 3 mps 769 mmHg 84%
    02:00 +7°C° 0 mm 3 mps 768 mmHg 86%
    03:00 +7°C° 0 mm 3 mps 768 mmHg 88%
    04:00 +7°C° 0 mm 3 mps 768 mmHg 89%
    05:00 +5°C° 0 mm 3 mps 768 mmHg 91%
    06:00 +5°C° 0 mm 3 mps 769 mmHg 93%
    07:00 +5°C° 0 mm 2 mps 769 mmHg 95%
    08:00 +8°C° 0.1 mm 2 mps 769 mmHg 85%
    09:00 +12°C° 0.1 mm 2 mps 769 mmHg 75%
    10:00 +14°C° 0.1 mm 2 mps 770 mmHg 65%
    11:00 +15°C° 0.1 mm 2 mps 769 mmHg 62%
    12:00 +16°C° 0.1 mm 2 mps 768 mmHg 60%
    13:00 +17°C° 0.1 mm 2 mps 768 mmHg 58%
    14:00 +17°C° 0 mm 2 mps 767 mmHg 62%
    15:00 +16°C° 0 mm 2 mps 767 mmHg 67%
    16:00 +15°C° 0 mm 2 mps 767 mmHg 72%
    17:00 +14°C° 0 mm 1 mps 767 mmHg 77%
    18:00 +13°C° 0 mm 1 mps 767 mmHg 82%
    19:00 +12°C° 0 mm 1 mps 768 mmHg 87%
    20:00 +11°C° 0 mm 1 mps 768 mmHg 90%
    21:00 +10°C° 0 mm 1 mps 768 mmHg 93%
    22:00 +9°C° 0 mm 1 mps 768 mmHg 96%
    23:00 +8°C° 0 mm 2 mps 768 mmHg 97%

    28 June, Wednesday

    Time Temperature Precipitation Wind Pressure Humidity
    00:00 +8°C° 0 mm 2 mps 767 mmHg 97%
    01:00 +8°C° 0 mm 2 mps 767 mmHg 97%
    02:00 +8°C° 0 mm 2 mps 767 mmHg 97%
    03:00 +7°C° 0 mm 2 mps 766 mmHg 98%
    04:00 +7°C° 0 mm 2 mps 766 mmHg 98%
    05:00 +7°C° 0 mm 2 mps 766 mmHg 98%
    06:00 +7°C° 0 mm 2 mps 766 mmHg 98%
    07:00 +7°C° 0 mm 2 mps 766 mmHg 97%
    08:00 +10°C° 0 mm 2 mps 766 mmHg 89%
    09:00 +13°C° 0 mm 2 mps 766 mmHg 80%
    10:00 +15°C° 0 mm 2 mps 766 mmHg 71%
    11:00 +14°C° 0.1 mm 3 mps 766 mmHg 72%
    12:00 +16°C° 0.1 mm 3 mps 765 mmHg 73%
    13:00 +16°C° 0.1 mm 3 mps 764 mmHg 75%
    14:00 +14°C° 0.6 mm 3 mps 764 mmHg 81%
    15:00 +14°C° 0.6 mm 2 mps 764 mmHg 88%
    16:00 +13°C° 0.6 mm 2 mps 764 mmHg 94%
    17:00 +13°C° 0.3 mm 2 mps 764 mmHg 96%
    18:00 +12°C° 0.3 mm 2 mps 765 mmHg 97%
    19:00 +12°C° 0.3 mm 2 mps 765 mmHg 98%
    20:00 +10°C° 0 mm 3 mps 765 mmHg 98%
    21:00 +10°C° 0 mm 3 mps 765 mmHg 97%
    22:00 +9°C° 0 mm 3 mps 765 mmHg 97%
    23:00 +9°C° 0 mm 3 mps 765 mmHg 96%

    29 June, Thursday

    Time Temperature Precipitation Wind Pressure Humidity
    00:00 +9°C° 0 mm 3 mps 765 mmHg 95%
    01:00 +8°C° 0 mm 4 mps 764 mmHg 94%
    02:00 +7°C° 0 mm 4 mps 764 mmHg 94%
    03:00 +6°C° 0 mm 4 mps 764 mmHg 94%
    04:00 +5°C° 0 mm 4 mps 764 mmHg 94%
    05:00 +5°C° 0 mm 4 mps 764 mmHg 94%
    06:00 +5°C° 0 mm 4 mps 764 mmHg 94%
    07:00 +5°C° 0 mm 4 mps 764 mmHg 94%
    08:00 +6°C° 0 mm 4 mps 764 mmHg 88%
    09:00 +8°C° 0 mm 4 mps 765 mmHg 83%
    10:00 +10°C° 0 mm 5 mps 765 mmHg 78%
    11:00 +12°C° 0 mm 5 mps 764 mmHg 68%
    12:00 +14°C° 0 mm 5 mps 763 mmHg 59%
    13:00 +15°C° 0 mm 5 mps 763 mmHg 50%
    14:00 +15°C° 0 mm 5 mps 762 mmHg 52%
    15:00 +15°C° 0 mm 5 mps 762 mmHg 54%
    16:00 +14°C° 0 mm 5 mps 762 mmHg 56%
    17:00 +13°C° 0 mm 5 mps 763 mmHg 61%
    18:00 +10°C° 0 mm 6 mps 763 mmHg 65%
    19:00 +9°C° 0 mm 6 mps 764 mmHg 70%
    20:00 +9°C° 0 mm 7 mps 764 mmHg 69%
    21:00 +9°C° 0 mm 7 mps 764 mmHg 69%
    22:00 +9°C° 0 mm 8 mps 765 mmHg 68%
    23:00 +7°C° 0 mm 8 mps 765 mmHg 67%

    30 June, Friday

    Time Temperature Precipitation Wind Pressure Humidity
    00:00 +7°C° 0 mm 8 mps 765 mmHg 67%
    01:00 +8°C° 0 mm 7 mps 765 mmHg 66%
    02:00 +6°C° 0 mm 7 mps 766 mmHg 66%
    03:00 +6°C° 0 mm 7 mps 766 mmHg 66%
    04:00 +5°C° 0 mm 7 mps 766 mmHg 67%
    05:00 +4°C° 0 mm 7 mps 767 mmHg 69%
    06:00 +4°C° 0 mm 6 mps 768 mmHg 71%
    07:00 +3°C° 0 mm 6 mps 768 mmHg 74%
    08:00 +5°C° 0 mm 6 mps 768 mmHg 66%
    09:00 +6°C° 0 mm 7 mps 769 mmHg 58%
    10:00 +9°C° 0 mm 7 mps 769 mmHg 49%
    11:00 +10°C° 0 mm 7 mps 769 mmHg 46%
    12:00 +11°C° 0 mm 6 mps 768 mmHg 42%
    13:00 +13°C° 0 mm 6 mps 768 mmHg 38%
    14:00 +11°C° 0 mm 6 mps 768 mmHg 43%
    15:00 +12°C° 0 mm 5 mps 768 mmHg 47%
    16:00 +12°C° 0 mm 5 mps 769 mmHg 52%
    17:00 +9°C° 0 mm 5 mps 769 mmHg 56%
    18:00 +6°C° 0 mm 5 mps 770 mmHg 60%
    19:00 +3°C° 0 mm 5 mps 770 mmHg 64%
    20:00 +5°C° 0 mm 5 mps 771 mmHg 64%
    21:00 +5°C° 0 mm 5 mps 771 mmHg 64%
    22:00 +5°C° 0 mm 5 mps 771 mmHg 64%
    23:00 +3°C° 0 mm 5 mps 771 mmHg 67%
    Show more